Retour au catalogue

STARLINK-34719

ActifCommunicationsSSO
NORAD 64943·PAYLOAD·🇺🇸 United States

Lancé Jul 26, 2025 depuis Vandenberg Space Force Base

Loading…

Prochains Passages (prochaines 24 heures)

TLE

FraisSource: CelesTrak SupGP

Époque: Sep 15, 2026, 02:25 UTC

1 64943C 25158M   26258.10118056 -.00045112  00000+0 -13997-2 0  2585
2 64943  97.2850 116.4299 0001460  90.5497 326.5493 15.33478052    17

Suivez STARLINK-34719 en temps réel avec AllMySat

Download on the App Store